Location: Newark
(43.4306°N, 0.3089°E)
Time: 21:15:55
(UTC+00:00)

Tiangong 2 - Visible Passes

Search period start: 18 July 2019 00:00
Search period end: 28 July 2019 00:00
Orbit: 378 x 386 km, 42.8° (Epoch: 18 July)

Date Brightness Start Highest point End Pass type
(mag) Time Alt. Az. Time Alt. Az. Time Alt. Az.
18 Jul 1.1 20:12:38 10° W 20:15:46 70° S 20:18:53 10° ESE visible
18 Jul 2.9 21:49:33 10° W 21:51:17 21° SW 21:51:17 21° SW visible
19 Jul 1.8 20:49:02 10° W 20:51:58 37° SSW 20:53:28 22° SE visible
20 Jul 3.1 21:25:56 10° WSW 21:27:49 16° SW 21:27:49 16° SW visible
21 Jul 2.5 20:25:09 10° W 20:27:48 25° SSW 20:30:04 12° SSE visible
23 Jul 3.3 20:01:28 10° WSW 20:03:34 17° SSW 20:05:40 10° SSE visible
